Regional Weather Roundup
Issued by NWS

Home | Current Version | Previous Version | Graphics & Text | Print | Product List | Glossary On
Versions: 1 2 3 4 5 6 7 8 9 10 11 12 13 14 15 16 17 18 19 20 21 22 23 24 25 26 27 28 29 30 31 32 33 34 35 36 37 38 39 40 41 42 43 44 45 46 47 48 49 50
000
ASUS43 KBIS 300159
RWRND

NORTH DAKOTA REGIONAL WEATHER ROUNDUP
NATIONAL WEATHER SERVICE BISMARCK ND
900 PM CDT WED OCT 29 2014

NOTE: "FAIR" INDICATES FEW OR NO CLOUDS BELOW 12,000 FEET WITH NO
SIGNIFICANT WEATHER AND/OR OBSTRUCTIONS TO VISIBILITY.


NDZ001>003-009>011-017-300300-
NORTHWEST NORTH DAKOTA

CITY           SKY/WX    TMP DP  RH WIND       PRES   REMARKS
WILLISTON      CLEAR     44  35  70 N13       29.96R
MINOT          PTCLDY    39  34  82 W7        29.90R
$$

NDZ018>021-031>035-040>046-300300-
SOUTHWEST NORTH DAKOTA

CITY           SKY/WX    TMP DP  RH WIND       PRES   REMARKS
BISMARCK       CLOUDY    45  44  97 SW5       29.95R
DICKINSON      PTCLDY    43  37  79 W12       29.94R
GARRISON         N/A     40  32  73 W8        29.91R
HETTINGER ARPT PTCLDY    37  33  85 W6        29.99R
$$

NDZ004>008-012>016-024-026-027-054-300300-
NORTHEAST NORTH DAKOTA

CITY           SKY/WX    TMP DP  RH WIND       PRES   REMARKS
GRAND FORKS    CLOUDY    39  29  67 SE7       30.00F
DEVILS LAKE    CLOUDY    41  30  65 SE10      29.91F
$$

NDZ022-023-025-028>030-036>039-047>053-300300-
SOUTHEAST NORTH DAKOTA

CITY           SKY/WX    TMP DP  RH WIND       PRES   REMARKS
FARGO          CLOUDY    41  30  65 SE12      30.00F
$$




USA.gov is the U.S. government's official web portal to all federal, state and local government web resources and services.